When you browse on this site, cookies collect data to enhance your experience and personalize the content and advertising you see.
Visit our Privacy Policy to learn more. By continuing to use the site, you agree to this use of cookies and data.
  • Em Portugal
  • Lista de países
  • Para 7 dias
  • Temperatura da água
  • Mapa do tempo
  • Widgets de tempo
  • user-avatar
    Iniciar Sessão

    Previsão horária em Kostyushino

    Hoje, 15 Dezembro, Domingo

    Tempo Temperatura Precipitação Vento Pressão Humidade
    00:00 -2°C° 0 mm 4 m/s 746 mmHg 86%
    01:00 -3°C° 0 mm 4 m/s 746 mmHg 85%
    02:00 -3°C° 0 mm 4 m/s 746 mmHg 85%
    03:00 -3°C° 0 mm 4 m/s 745 mmHg 86%
    04:00 -3°C° 0 mm 4 m/s 745 mmHg 88%
    05:00 -3°C° 0 mm 4 m/s 744 mmHg 90%
    06:00 -2°C° 0.1 mm 4 m/s 744 mmHg 91%
    07:00 -2°C° 0.1 mm 4 m/s 744 mmHg 91%
    08:00 -2°C° 0.1 mm 5 m/s 744 mmHg 92%
    09:00 -1°C° 0 mm 5 m/s 743 mmHg 93%
    10:00 0°C° 0 mm 5 m/s 743 mmHg 93%
    11:00 0°C° 0 mm 5 m/s 743 mmHg 94%
    12:00 +1°C° 0 mm 5 m/s 742 mmHg 93%
    13:00 +1°C° 0 mm 5 m/s 742 mmHg 93%
    14:00 +1°C° 0 mm 5 m/s 742 mmHg 92%
    15:00 +1°C° 0.2 mm 5 m/s 741 mmHg 92%
    16:00 +1°C° 0.2 mm 5 m/s 741 mmHg 93%
    17:00 +1°C° 0.2 mm 5 m/s 740 mmHg 93%
    18:00 +1°C° 0.7 mm 5 m/s 740 mmHg 94%
    19:00 +1°C° 0.7 mm 5 m/s 740 mmHg 94%
    20:00 +1°C° 0.7 mm 5 m/s 740 mmHg 94%
    21:00 +1°C° 0.5 mm 4 m/s 740 mmHg 94%
    22:00 +1°C° 0.5 mm 4 m/s 740 mmHg 95%
    23:00 0°C° 0.5 mm 4 m/s 740 mmHg 95%

    Amanhã, 16 Dezembro, Segunda-feira

    Tempo Temperatura Precipitação Vento Pressão Humidade
    00:00 0°C° 0 mm 4 m/s 740 mmHg 94%
    01:00 -1°C° 0 mm 4 m/s 740 mmHg 93%
    02:00 -1°C° 0 mm 4 m/s 740 mmHg 92%
    03:00 -1°C° 0 mm 4 m/s 740 mmHg 92%
    04:00 -1°C° 0 mm 4 m/s 740 mmHg 91%
    05:00 0°C° 0 mm 3 m/s 741 mmHg 91%
    06:00 0°C° 0 mm 3 m/s 741 mmHg 91%
    07:00 -2°C° 0 mm 4 m/s 741 mmHg 91%
    08:00 -2°C° 0 mm 4 m/s 741 mmHg 92%
    09:00 -2°C° 0.1 mm 4 m/s 740 mmHg 92%
    10:00 -2°C° 0.1 mm 4 m/s 740 mmHg 92%
    11:00 -1°C° 0.1 mm 4 m/s 740 mmHg 93%
    12:00 -1°C° 0 mm 4 m/s 740 mmHg 94%
    13:00 -1°C° 0 mm 4 m/s 740 mmHg 95%
    14:00 0°C° 0 mm 3 m/s 740 mmHg 96%
    15:00 0°C° 0.1 mm 3 m/s 740 mmHg 96%
    16:00 -1°C° 0.1 mm 4 m/s 739 mmHg 96%
    17:00 -1°C° 0.1 mm 4 m/s 739 mmHg 97%
    18:00 -1°C° 0.3 mm 4 m/s 740 mmHg 97%
    19:00 0°C° 0.3 mm 3 m/s 740 mmHg 97%
    20:00 0°C° 0.3 mm 3 m/s 740 mmHg 97%
    21:00 -1°C° 0.1 mm 4 m/s 741 mmHg 96%
    22:00 -1°C° 0.1 mm 4 m/s 742 mmHg 96%
    23:00 -1°C° 0.1 mm 5 m/s 743 mmHg 95%

    Depois de amanhã, 17 Dezembro, Terça-feira

    Tempo Temperatura Precipitação Vento Pressão Humidade
    00:00 -1°C° 0 mm 4 m/s 744 mmHg 94%
    01:00 -1°C° 0 mm 4 m/s 744 mmHg 93%
    02:00 -2°C° 0 mm 4 m/s 745 mmHg 93%
    03:00 -1°C° 0 mm 3 m/s 745 mmHg 92%
    04:00 0°C° 0 mm 3 m/s 746 mmHg 91%
    05:00 0°C° 0 mm 3 m/s 746 mmHg 90%
    06:00 -1°C° 0 mm 3 m/s 746 mmHg 91%
    07:00 -1°C° 0 mm 3 m/s 746 mmHg 92%
    08:00 -1°C° 0 mm 3 m/s 746 mmHg 94%
    09:00 -1°C° 0 mm 3 m/s 746 mmHg 92%
    10:00 -2°C° 0 mm 4 m/s 746 mmHg 90%
    11:00 -1°C° 0 mm 4 m/s 745 mmHg 88%
    12:00 -1°C° 0.5 mm 4 m/s 745 mmHg 91%
    13:00 -1°C° 0.5 mm 4 m/s 744 mmHg 94%
    14:00 -1°C° 0.5 mm 4 m/s 743 mmHg 97%
    15:00 -1°C° 0.5 mm 4 m/s 743 mmHg 97%
    16:00 0°C° 0.5 mm 4 m/s 743 mmHg 96%
    17:00 +1°C° 0.5 mm 3 m/s 742 mmHg 96%
    18:00 +2°C° 0.1 mm 3 m/s 742 mmHg 95%
    19:00 +1°C° 0.1 mm 4 m/s 742 mmHg 95%
    20:00 +1°C° 0.1 mm 4 m/s 742 mmHg 94%
    21:00 +1°C° 0 mm 4 m/s 742 mmHg 93%
    22:00 +1°C° 0 mm 3 m/s 743 mmHg 93%
    23:00 +1°C° 0 mm 3 m/s 743 mmHg 92%

    18 Dezembro, Quarta-feira

    Tempo Temperatura Precipitação Vento Pressão Humidade
    00:00 0°C° 0 mm 3 m/s 743 mmHg 93%
    01:00 0°C° 0 mm 3 m/s 744 mmHg 93%
    02:00 0°C° 0 mm 3 m/s 744 mmHg 93%
    03:00 0°C° 0 mm 3 m/s 745 mmHg 92%
    04:00 -1°C° 0 mm 2 m/s 745 mmHg 92%
    05:00 -1°C° 0 mm 2 m/s 745 mmHg 91%
    06:00 -1°C° 0 mm 2 m/s 745 mmHg 92%
    07:00 -1°C° 0 mm 2 m/s 745 mmHg 94%
    08:00 -1°C° 0 mm 2 m/s 745 mmHg 95%
    09:00 -1°C° 0 mm 2 m/s 745 mmHg 94%
    10:00 -1°C° 0 mm 2 m/s 745 mmHg 93%
    11:00 +1°C° 0 mm 2 m/s 745 mmHg 92%
    12:00 +1°C° 0.1 mm 2 m/s 744 mmHg 93%
    13:00 0°C° 0.1 mm 3 m/s 743 mmHg 94%
    14:00 0°C° 0.1 mm 3 m/s 742 mmHg 95%
    15:00 0°C° 0.4 mm 3 m/s 742 mmHg 96%
    16:00 +1°C° 0.4 mm 3 m/s 741 mmHg 96%
    17:00 +1°C° 0.4 mm 3 m/s 740 mmHg 96%
    18:00 +1°C° 0.8 mm 4 m/s 739 mmHg 95%
    19:00 +1°C° 0.8 mm 5 m/s 738 mmHg 94%
    20:00 +2°C° 0.8 mm 5 m/s 737 mmHg 93%
    21:00 +2°C° 0 mm 6 m/s 737 mmHg 91%
    22:00 +3°C° 0 mm 6 m/s 736 mmHg 89%
    23:00 +3°C° 0 mm 6 m/s 735 mmHg 87%

    19 Dezembro, Quinta-feira

    Tempo Temperatura Precipitação Vento Pressão Humidade
    00:00 +4°C° 0.1 mm 6 m/s 735 mmHg 87%
    01:00 +4°C° 0.1 mm 7 m/s 735 mmHg 86%
    02:00 +4°C° 0.1 mm 7 m/s 734 mmHg 85%
    03:00 +4°C° 0.3 mm 7 m/s 735 mmHg 85%
    04:00 +3°C° 0.3 mm 7 m/s 735 mmHg 84%
    05:00 +2°C° 0.3 mm 8 m/s 736 mmHg 84%
    06:00 0°C° 0 mm 7 m/s 737 mmHg 84%
    07:00 -1°C° 0 mm 7 m/s 738 mmHg 83%
    08:00 -2°C° 0 mm 6 m/s 740 mmHg 83%
    09:00 -2°C° 0 mm 6 m/s 741 mmHg 82%
    10:00 -1°C° 0 mm 5 m/s 741 mmHg 81%
    11:00 0°C° 0 mm 5 m/s 742 mmHg 79%
    12:00 -1°C° 0 mm 5 m/s 742 mmHg 79%
    13:00 -1°C° 0 mm 5 m/s 743 mmHg 79%
    14:00 -1°C° 0 mm 4 m/s 743 mmHg 79%
    15:00 -2°C° 0 mm 4 m/s 743 mmHg 81%
    16:00 -2°C° 0 mm 4 m/s 743 mmHg 83%
    17:00 -2°C° 0 mm 4 m/s 744 mmHg 85%
    18:00 -3°C° 0 mm 4 m/s 744 mmHg 83%
    19:00 -3°C° 0 mm 4 m/s 744 mmHg 80%
    20:00 -3°C° 0 mm 4 m/s 744 mmHg 78%
    21:00 -3°C° 0 mm 4 m/s 744 mmHg 78%
    22:00 -3°C° 0 mm 4 m/s 745 mmHg 78%
    23:00 -2°C° 0 mm 3 m/s 745 mmHg 78%

    20 Dezembro, Sexta-feira

    Tempo Temperatura Precipitação Vento Pressão Humidade
    00:00 -4°C° 0 mm 3 m/s 745 mmHg 79%
    01:00 -4°C° 0 mm 3 m/s 745 mmHg 81%
    02:00 -4°C° 0 mm 3 m/s 745 mmHg 82%
    03:00 -4°C° 0 mm 3 m/s 745 mmHg 82%
    04:00 -4°C° 0 mm 3 m/s 746 mmHg 82%
    05:00 -4°C° 0 mm 3 m/s 746 mmHg 82%
    06:00 -4°C° 0 mm 3 m/s 746 mmHg 82%
    07:00 -4°C° 0 mm 3 m/s 746 mmHg 83%
    08:00 -4°C° 0 mm 3 m/s 746 mmHg 84%
    09:00 -4°C° 0 mm 3 m/s 747 mmHg 82%
    10:00 -4°C° 0 mm 3 m/s 747 mmHg 80%
    11:00 -2°C° 0 mm 3 m/s 747 mmHg 77%
    12:00 -2°C° 0 mm 3 m/s 747 mmHg 78%
    13:00 -2°C° 0 mm 3 m/s 747 mmHg 78%
    14:00 -2°C° 0 mm 2 m/s 747 mmHg 79%
    15:00 -3°C° 0 mm 2 m/s 747 mmHg 80%
    16:00 -3°C° 0 mm 2 m/s 747 mmHg 82%
    17:00 -3°C° 0 mm 2 m/s 747 mmHg 83%
    18:00 -3°C° 0 mm 2 m/s 747 mmHg 84%
    19:00 -4°C° 0 mm 3 m/s 747 mmHg 85%
    20:00 -4°C° 0 mm 3 m/s 747 mmHg 86%
    21:00 -4°C° 0 mm 3 m/s 747 mmHg 86%
    22:00 -4°C° 0 mm 3 m/s 747 mmHg 87%
    23:00 -4°C° 0 mm 3 m/s 747 mmHg 87%
    Mostrar mais